FW8707 Weather Reports


time (UTC)temp
F
wind
direction
speed
knots
gust
knots
rain 1hr
in
rain 24hr
in
rain mn
in
humidity
%
barometer
mb
20260905090516 67 270 0.0 0.0 0.00 0.00 0.00 47 1017.0
20260905090024 68 270 0.0 0.0 0.00 0.00 0.00 46 1016.8
20260905085517 68 270 0.0 1.7 0.00 0.00 0.00 46 1016.8
20260905085016 68 270 0.0 3.5 0.00 0.00 0.00 45 1016.8
20260905084512 68 275 1.7 3.5 0.00 0.00 0.00 45 1016.7
20260905084011 68 275 0.0 3.5 0.00 0.00 0.00 45 1016.7
20260905083512 68 287 0.0 3.5 0.00 0.00 0.00 45 1016.7
20260905083017 68 287 0.9 3.5 0.00 0.00 0.00 45 1016.6
20260905082511 68 270 0.9 2.6 0.00 0.00 0.00 45 1016.7
20260905082014 68 279 0.9 2.6 0.00 0.00 0.00 45 1016.7
20260905081525 68 279 0.0 1.7 0.00 0.00 0.00 45 1016.7
20260905081015 68 279 0.0 1.7 0.00 0.00 0.00 45 1016.8
20260905080514 68 279 0.9 1.7 0.00 0.00 0.00 45 1016.8
20260905080026 68 279 0.0 1.7 0.00 0.00 0.00 45 1016.8
20260905075514 68 275 0.0 1.7 0.00 0.00 0.00 45 1016.8
20260905075013 68 275 0.0 3.5 0.00 0.00 0.00 44 1016.8
20260905074529 68 275 0.0 3.5 0.00 0.00 0.00 44 1016.8
20260905074016 69 275 0.0 2.6 0.00 0.00 0.00 44 1016.8
20260905073507 69 281 0.0 0.9 0.00 0.00 0.00 44 1016.8
20260905073012 70 281 0.0 0.9 0.00 0.00 0.00 42 1016.8
20260905072512 70 270 0.0 0.9 0.00 0.00 0.00 42 1016.7
20260905072014 70 270 0.0 0.9 0.00 0.00 0.00 42 1016.7
20260905071524 70 279 0.0 4.3 0.00 0.00 0.00 42 1016.7
20260905071013 71 279 0.0 4.3 0.00 0.00 0.00 40 1016.6
20260905070514 71 275 1.7 3.5 0.00 0.00 0.00 40 1016.6
20260905070027 71 279 0.9 3.5 0.00 0.00 0.00 40 1016.5
20260905065513 71 279 1.7 3.5 0.00 0.00 0.00 40 1016.6
20260905065014 71 279 0.9 2.6 0.00 0.00 0.00 39 1016.7
20260905064527 71 279 0.9 3.5 0.00 0.00 0.00 39 1016.7
20260905064020 71 275 0.9 3.5 0.00 0.00 0.00 40 1016.7
20260905063515 72 275 1.7 3.5 0.00 0.00 0.00 40 1016.7
20260905063030 72 279 1.7 3.5 0.00 0.00 0.00 39 1016.7
20260905062516 72 270 0.9 3.5 0.00 0.00 0.00 38 1016.7
20260905062009 73 270 0.9 4.3 0.00 0.00 0.00 38 1016.7
20260905061516 73 270 1.7 4.3 0.00 0.00 0.00 38 1016.7
20260905061014 73 279 0.9 4.3 0.00 0.00 0.00 38 1016.7
20260905060512 73 275 1.7 6.1 0.00 0.00 0.00 37 1016.5
20260905060039 73 275 1.7 6.1 0.00 0.00 0.00 37 1016.4
20260905055515 74 287 0.9 4.3 0.00 0.00 0.00 37 1016.5
20260905055014 74 270 0.9 3.5 0.00 0.00 0.00 37 1016.5
20260905054557 74 275 0.9 5.2 0.00 0.00 0.00 36 1016.6
20260905054017 74 275 1.7 6.1 0.00 0.00 0.00 36 1016.7
20260905053516 74 275 2.6 6.1 0.00 0.00 0.00 36 1016.7
20260905053032 74 279 1.7 7.0 0.00 0.00 0.00 36 1016.7
20260905052518 74 279 2.6 9.6 0.00 0.00 0.00 36 1016.8
20260905052014 74 279 2.6 9.6 0.00 0.00 0.00 36 1016.8
20260905051527 75 279 2.6 8.7 0.00 0.00 0.00 36 1016.8
20260905051015 76 279 2.6 6.1 0.00 0.00 0.00 35 1017.0
20260905050514 76 287 2.6 6.1 0.00 0.00 0.00 35 1017.1
20260905050020 77 285 0.9 4.3 0.00 0.00 0.00 34 1017.0
20260905045518 77 279 1.7 4.3 0.00 0.00 0.00 34 1017.0
20260905045015 77 279 1.7 4.3 0.00 0.00 0.00 34 1017.0
20260905044526 77 270 1.7 3.5 0.00 0.00 0.00 34 1017.1
20260905044015 78 279 0.9 6.1 0.00 0.00 0.00 33 1017.2
20260905043514 78 275 2.6 6.1 0.00 0.00 0.00 33 1017.3
20260905043032 78 279 2.6 6.1 0.00 0.00 0.00 33 1017.3
20260905042516 78 279 0.9 3.5 0.00 0.00 0.00 34 1017.3
20260905042018 78 279 0.0 1.7 0.00 0.00 0.00 33 1017.4
20260905041532 78 279 0.0 1.7 0.00 0.00 0.00 33 1017.5
20260905041009 79 279 0.0 2.6 0.00 0.00 0.00 34 1017.5
20260905040514 79 287 0.0 2.6 0.00 0.00 0.00 33 1017.5
20260905040017 79 275 0.0 1.7 0.00 0.00 0.00 34 1017.5
20260905035511 79 279 0.0 2.6 0.00 0.00 0.00 33 1017.5
20260905035017 79 279 0.0 3.5 0.00 0.00 0.00 33 1017.4
20260905034524 79 279 0.0 3.5 0.00 0.00 0.00 33 1017.4
20260905034004 79 286 0.0 3.5 0.00 0.00 0.00 34 1017.5
20260905033504 79 270 0.0 3.5 0.00 0.00 0.00 34 1017.5
20260905033008 79 275 0.0 3.5 0.00 0.00 0.00 34 1017.5
20260905032505 79 279 0.0 4.3 0.00 0.00 0.00 34 1017.3
20260905032005 80 279 0.9 4.3 0.00 0.00 0.00 33 1017.2
20260905031508 80 275 0.0 2.6 0.00 0.00 0.00 34 1017.2
20260905031008 80 285 0.0 0.9 0.00 0.00 0.00 34 1017.2
20260905030506 80 286 0.0 0.9 0.00 0.00 0.00 34 1017.1
20260905030014 80 285 0.0 0.9 0.00 0.00 0.00 34 1017.0
20260905025510 80 292 0.0 0.9 0.00 0.00 0.00 33 1017.1
20260905025011 80 288 0.0 0.9 0.00 0.00 0.00 33 1017.0
20260905024517 80 285 0.0 3.5 0.00 0.00 0.00 32 1016.8
20260905024013 80 282 0.0 3.5 0.00 0.00 0.00 32 1016.8
20260905023516 80 283 0.0 1.7 0.00 0.00 0.00 33 1016.7
20260905023026 80 287 0.0 1.7 0.00 0.00 0.00 32 1016.5
20260905022504 80 279 0.0 1.7 0.00 0.00 0.00 33 1016.5
20260905022006 81 279 0.0 1.7 0.00 0.00 0.00 32 1016.5
20260905021506 81 293 0.0 0.0 0.00 0.00 0.00 32 1016.5
20260905021004 81 283 0.0 0.0 0.00 0.00 0.00 31 1016.3
20260905020506 82 81 0.0 0.0 0.00 0.00 0.00 32 1016.3
20260905020012 82 81 0.0 0.0 0.00 0.00 0.00 31 1016.2
20260905015513 82 81 0.0 0.0 0.00 0.00 0.00 31 1016.1
20260905015008 82 81 0.0 0.9 0.00 0.00 0.00 30 1016.1
20260905014518 83 81 0.0 0.9 0.00 0.00 0.00 30 1016.0
20260905014013 83 81 0.0 0.9 0.00 0.00 0.00 30 1016.1
20260905013514 83 81 0.0 2.6 0.00 0.00 0.00 29 1016.0
20260905013027 83 65 0.0 2.6 0.00 0.00 0.00 29 1016.0
20260905012512 84 60 0.0 3.5 0.00 0.00 0.00 29 1016.0
20260905012017 84 64 0.0 3.5 0.00 0.00 0.00 29 1015.9
20260905011506 84 75 0.0 2.6 0.00 0.00 0.00 28 1016.0
20260905011005 85 64 0.0 4.3 0.00 0.00 0.00 28 1015.9
20260905010504 85 281 0.9 4.3 0.00 0.00 0.00 27 1015.9
20260905010015 86 54 0.0 3.5 0.00 0.00 0.00 27 1015.8
20260905005506 86 237 0.0 7.0 0.00 0.00 0.00 26 1015.8
20260905005010 87 35 0.9 7.0 0.00 0.00 0.00 25 1015.8
20260905004513 87 135 0.9 6.1 0.00 0.00 0.00 25 1015.7
20260905004011 88 1 0.0 3.5 0.00 0.00 0.00 23 1015.6
20260905003511 88 80 0.0 5.2 0.00 0.00 0.00 24 1015.6
20260905003021 88 308 0.9 6.1 0.00 0.00 0.00 23 1015.5
20260905002514 89 52 1.7 6.1 0.00 0.00 0.00 22 1015.4
20260905002013 89 105 0.9 5.2 0.00 0.00 0.00 22 1015.4
20260905001524 89 88 2.6 5.2 0.00 0.00 0.00 22 1015.4
20260905001020 90 59 1.7 7.0 0.00 0.00 0.00 21 1015.4
20260905000517 90 96 0.0 7.0 0.00 0.00 0.00 22 1015.5
20260905000006 90 123 1.7 7.0 0.00 0.00 0.00 21 1015.4
20260904235506 90 55 1.7 7.8 0.00 0.00 0.00 21 1015.4
20260904235005 90 85 3.5 7.8 0.00 0.00 0.00 21 1015.4
20260904234510 90 285 0.9 7.0 0.00 0.00 0.00 22 1015.4
20260904234007 90 67 2.6 7.8 0.00 0.00 0.00 21 1015.3
20260904233507 90 64 2.6 7.8 0.00 0.00 0.00 22 1015.3
20260904233019 91 52 2.6 7.8 0.00 0.00 0.00 21 1015.3
20260904232510 91 61 0.0 6.1 0.00 0.00 0.00 21 1015.3
20260904232013 91 198 0.9 6.1 0.00 0.00 0.00 19 1015.4
20260904231523 91 90 1.7 7.0 0.00 0.00 0.00 20 1015.3
20260904231012 91 64 2.6 7.0 0.00 0.00 0.00 20 1015.3
20260904230514 92 92 2.6 6.1 0.00 0.00 0.00 19 1015.3
20260904230032 92 279 2.6 6.1 0.00 0.00 0.00 19 1015.3
20260904225513 92 54 2.6 6.1 0.00 0.00 0.00 20 1015.3
20260904225019 92 225 0.9 7.0 0.00 0.00 0.00 19 1015.5
20260904224510 92 229 1.7 7.0 0.00 0.00 0.00 18 1015.4
20260904224008 93 138 0.9 7.8 0.00 0.00 0.00 19 1015.5
20260904223507 93 202 0.9 7.8 0.00 0.00 0.00 18 1015.5
20260904223012 93 201 0.9 7.8 0.00 0.00 0.00 19 1015.6
20260904222510 93 70 1.7 7.0 0.00 0.00 0.00 19 1015.5
20260904222009 93 171 1.7 7.0 0.00 0.00 0.00 19 1015.6
20260904221519 93 294 0.9 7.0 0.00 0.00 0.00 18 1015.5
20260904221014 93 46 0.9 7.0 0.00 0.00 0.00 18 1015.6
20260904220512 93 55 2.6 8.7 0.00 0.00 0.00 18 1015.6
20260904220027 94 91 3.5 8.7 0.00 0.00 0.00 19 1015.6
20260904215514 94 67 3.5 7.0 0.00 0.00 0.00 18 1015.6
20260904215016 95 158 1.7 6.1 0.00 0.00 0.00 19 1015.7
20260904214529 95 74 2.6 6.1 0.00 0.00 0.00 18 1015.7
20260904214016 95 260 1.7 6.1 0.00 0.00 0.00 19 1015.8
20260904213508 95 44 1.7 5.2 0.00 0.00 0.00 18 1015.8
20260904213010 95 225 2.6 6.1 0.00 0.00 0.00 19 1015.8
20260904212508 95 217 1.7 7.0 0.00 0.00 0.00 17 1015.9
20260904212008 95 64 2.6 7.8 0.00 0.00 0.00 18 1015.9
20260904211516 95 227 3.5 7.8 0.00 0.00 0.00 18 1015.8
20260904211010 95 275 0.9 7.8 0.00 0.00 0.00 19 1015.9
20260904210513 95 234 0.9 7.8 0.00 0.00 0.00 18 1016.0
20260904210030 94 214 1.7 8.7 0.00 0.00 0.00 19 1016.0
20260904205517 94 46 5.2 8.7 0.00 0.00 0.00 20 1016.0
20260904205015 95 94 2.6 9.6 0.00 0.00 0.00 19 1016.1
20260904204531 95 121 1.7 9.6 0.00 0.00 0.00 19 1016.2
20260904204021 95 44 0.9 8.7 0.00 0.00 0.00 20 1016.2
20260904203516 95 120 0.9 7.8 0.00 0.00 0.00 19 1016.2
20260904203047 95 196 3.5 7.8 0.00 0.00 0.00 18 1016.1
20260904202519 95 63 1.7 6.1 0.00 0.00 0.00 20 1016.2
20260904202010 95 175 1.7 8.7 0.00 0.00 0.00 19 1016.3
20260904201514 95 56 1.7 8.7 0.00 0.00 0.00 19 1016.2
20260904201009 95 55 0.9 7.0 0.00 0.00 0.00 19 1016.2
20260904200510 95 67 2.6 8.7 0.00 0.00 0.00 20 1016.3
20260904200020 94 73 3.5 8.7 0.00 0.00 0.00 21 1016.3
20260904195515 94 58 0.9 4.3 0.00 0.00 0.00 20 1016.3
20260904195011 94 56 1.7 7.0 0.00 0.00 0.00 19 1016.3
20260904194529 94 60 2.6 7.8 0.00 0.00 0.00 21 1016.4
20260904194015 95 77 5.2 7.8 0.00 0.00 0.00 20 1016.3
20260904193517 95 67 0.0 6.1 0.00 0.00 0.00 20 1016.4
20260904193031 94 229 1.7 7.8 0.00 0.00 0.00 21 1016.5
20260904192515 94 52 2.6 7.8 0.00 0.00 0.00 21 1016.3
20260904192018 94 74 4.3 7.8 0.00 0.00 0.00 21 1016.4
20260904191536 94 75 0.9 9.6 0.00 0.00 0.00 21 1016.5
20260904191010 94 38 0.9 9.6 0.00 0.00 0.00 21 1016.4
20260904190510 94 28 0.9 6.1 0.00 0.00 0.00 23 1016.4
20260904190016 94 76 1.7 7.8 0.00 0.00 0.00 22 1016.6
20260904185509 94 138 1.7 7.8 0.00 0.00 0.00 22 1016.7
20260904185011 94 249 1.7 6.1 0.00 0.00 0.00 23 1016.8
20260904184531 94 234 1.7 6.1 0.00 0.00 0.00 25 1017.0
20260904184013 94 173 1.7 6.1 0.00 0.00 0.00 23 1016.9
20260904183512 94 262 1.7 7.0 0.00 0.00 0.00 21 1017.0
20260904183027 94 102 0.9 7.0 0.00 0.00 0.00 23 1017.1
20260904182525 93 61 1.7 7.0 0.00 0.00 0.00 24 1017.1
20260904182020 93 31 0.0 5.2 0.00 0.00 0.00 23 1017.2
20260904181530 93 133 0.9 7.0 0.00 0.00 0.00 23 1017.3
20260904181016 92 69 0.9 7.0 0.00 0.00 0.00 23 1017.3
20260904180522 92 262 1.7 3.5 0.00 0.00 0.00 26 1017.3
20260904180040 92 300 1.7 6.1 0.00 0.00 0.00 25 1017.5
20260904175512 91 158 2.6 6.1 0.00 0.00 0.00 27 1017.4
20260904175011 92 250 1.7 5.2 0.00 0.00 0.00 25 1017.5
20260904174520 91 148 0.9 4.3 0.00 0.00 0.00 24 1017.6
20260904174010 91 138 1.7 5.2 0.00 0.00 0.00 26 1017.6
20260904173515 90 197 0.9 5.2 0.00 0.00 0.00 25 1017.6
20260904173025 90 308 1.7 4.3 0.00 0.00 0.00 27 1017.7
20260904172516 89 275 0.9 5.2 0.00 0.00 0.00 27 1017.7
20260904172014 89 172 1.7 6.1 0.00 0.00 0.00 29 1017.7
20260904171528 88 200 1.7 6.1 0.00 0.00 0.00 28 1017.7
20260904171015 88 152 1.7 5.2 0.00 0.00 0.00 27 1017.6
20260904170515 88 212 0.9 4.3 0.00 0.00 0.00 28 1017.7
20260904170037 88 157 0.9 4.3 0.00 0.00 0.00 29 1017.7
20260904165519 88 230 0.9 6.1 0.00 0.00 0.00 29 1017.7
20260904165015 87 324 0.9 6.1 0.00 0.00 0.00 29 1017.7
20260904164536 87 53 0.9 6.1 0.00 0.00 0.00 28 1017.7
20260904164009 87 69 1.7 5.2 0.00 0.00 0.00 29 1017.6
20260904163510 86 218 0.9 5.2 0.00 0.00 0.00 30 1017.6
20260904163020 86 357 0.9 4.3 0.00 0.00 0.00 29 1017.6
20260904162512 85 297 0.9 4.3 0.00 0.00 0.00 31 1017.7
20260904162013 85 219 0.9 4.3 0.00 0.00 0.00 29 1017.8
20260904161525 84 180 0.9 3.5 0.00 0.00 0.00 31 1018.0
20260904161015 84 60 0.9 3.5 0.00 0.00 0.00 33 1017.9
20260904160513 83 72 0.0 2.6 0.00 0.00 0.00 33 1017.9
20260904160043 83 206 0.9 2.6 0.00 0.00 0.00 33 1017.9
20260904155516 82 181 0.9 3.5 0.00 0.00 0.00 34 1018.0
20260904155018 82 140 0.9 4.3 0.00 0.00 0.00 32 1017.8
20260904154532 81 191 0.9 4.3 0.00 0.00 0.00 34 1017.7
20260904154017 81 26 0.9 4.3 0.00 0.00 0.00 33 1017.7
20260904153520 80 44 0.0 3.5 0.00 0.00 0.00 34 1017.7
20260904153019 80 201 0.9 3.5 0.00 0.00 0.00 35 1017.7
20260904152514 79 200 0.9 2.6 0.00 0.00 0.00 38 1017.7
20260904152014 78 121 0.9 3.5 0.00 0.00 0.00 37 1017.7
20260904151523 77 135 0.0 3.5 0.00 0.00 0.00 38 1017.6
20260904151015 77 131 0.0 2.6 0.00 0.00 0.00 38 1017.6
20260904150517 76 1 0.9 2.6 0.00 0.00 0.00 40 1017.5
20260904150031 75 93 0.0 2.6 0.00 0.00 0.00 41 1017.5
20260904145516 75 11 0.0 1.7 0.00 0.00 0.00 47 1017.5
20260904145016 74 6 0.0 1.7 0.00 0.00 0.00 49 1017.5
20260904144534 74 2 0.0 0.0 0.00 0.00 0.00 50 1017.5
20260904144019 73 283 0.0 0.0 0.00 0.00 0.00 49 1017.5
20260904143519 72 283 0.0 0.0 0.00 0.00 0.00 47 1017.5
20260904143036 71 279 0.0 0.0 0.00 0.00 0.00 47 1017.5
20260904142519 71 279 0.0 0.0 0.00 0.00 0.00 51 1017.5
20260904142020 70 279 0.0 0.0 0.00 0.00 0.00 54 1017.5
20260904141518 69 279 0.0 0.0 0.00 0.00 0.00 54 1017.5
20260904141011 68 279 0.0 0.0 0.00 0.00 0.00 54 1017.4
20260904140513 67 279 0.0 0.0 0.00 0.00 0.00 54 1017.3
20260904140028 66 279 0.0 0.0 0.00 0.00 0.00 57 1017.2
20260904135517 65 279 0.0 0.0 0.00 0.00 0.00 59 1017.2
20260904135016 64 279 0.0 0.0 0.00 0.00 0.00 59 1017.2
20260904134550 63 279 0.0 0.0 0.00 0.00 0.00 61 1017.1
20260904134018 62 279 0.0 0.0 0.00 0.00 0.00 62 1017.1
20260904133518 61 279 0.0 0.0 0.00 0.00 0.00 64 1017.0
20260904133039 60 279 0.0 0.0 0.00 0.00 0.00 67 1016.9
20260904132521 59 270 0.0 0.0 0.00 0.00 0.00 67 1016.8
20260904132017 58 279 0.0 0.0 0.00 0.00 0.00 68 1016.7
20260904131540 57 270 0.0 0.0 0.00 0.00 0.00 68 1016.7
20260904131018 57 279 0.0 0.0 0.00 0.00 0.00 69 1016.6
20260904130517 56 279 0.0 0.0 0.00 0.00 0.00 69 1016.6
20260904130025 56 279 0.0 0.9 0.00 0.00 0.00 69 1016.6
20260904125512 56 279 0.0 1.7 0.00 0.00 0.00 69 1016.6
20260904125014 56 279 0.9 2.6 0.00 0.00 0.00 69 1016.4
20260904124528 56 270 0.0 2.6 0.00 0.00 0.00 68 1016.3
20260904124015 56 270 0.0 2.6 0.00 0.00 0.00 68 1016.2
20260904123518 56 283 0.0 0.0 0.00 0.00 0.00 67 1016.1
20260904123030 56 270 0.0 0.0 0.00 0.00 0.00 67 1016.1
20260904122518 56 270 0.0 0.0 0.00 0.00 0.00 65 1016.0
20260904122018 56 270 0.0 0.0 0.00 0.00 0.00 65 1015.9
20260904121536 56 270 0.0 0.0 0.00 0.00 0.00 63 1015.8
20260904121018 56 270 0.0 0.0 0.00 0.00 0.00 64 1015.7
20260904120520 57 270 0.0 0.0 0.00 0.00 0.00 65 1015.7
20260904120036 57 270 0.0 0.0 0.00 0.00 0.00 64 1015.6
20260904115519 57 270 0.0 0.0 0.00 0.00 0.00 64 1015.6
20260904115014 57 270 0.0 0.0 0.00 0.00 0.00 64 1015.5
20260904114528 57 270 0.0 0.0 0.00 0.00 0.00 63 1015.5
20260904114017 57 270 0.0 0.0 0.00 0.00 0.00 63 1015.6
20260904113519 57 270 0.0 0.9 0.00 0.00 0.00 63 1015.6
20260904113030 57 270 0.0 0.9 0.00 0.00 0.00 64 1015.6
20260904112519 57 270 0.0 0.9 0.00 0.00 0.00 63 1015.6
20260904112015 58 270 0.0 0.9 0.00 0.00 0.00 63 1015.6
20260904111538 58 287 0.0 0.9 0.00 0.00 0.00 63 1015.6
20260904111017 58 270 0.0 2.6 0.00 0.00 0.00 62 1015.6
20260904110517 58 286 0.0 2.6 0.00 0.00 0.00 62 1015.6
20260904110033 58 288 0.0 0.9 0.00 0.00 0.00 61 1015.7
20260904105522 58 270 0.0 2.6 0.00 0.00 0.00 62 1015.7
20260904105021 58 287 0.9 2.6 0.00 0.00 0.00 60 1015.6
20260904104534 58 287 0.0 0.0 0.00 0.00 0.00 60 1015.6
20260904104017 59 284 0.0 0.0 0.00 0.00 0.00 59 1015.6
20260904103517 59 270 0.0 0.0 0.00 0.00 0.00 59 1015.6
20260904103030 59 270 0.0 0.9 0.00 0.00 0.00 58 1015.6
20260904102518 59 270 0.0 0.9 0.00 0.00 0.00 58 1015.5
20260904102018 60 279 0.0 0.0 0.00 0.00 0.00 58 1015.4
20260904101531 60 279 0.0 0.0 0.00 0.00 0.00 58 1015.5
20260904101005 60 279 0.0 0.0 0.00 0.00 0.00 58 1015.4
20260904100507 60 279 0.0 0.0 0.00 0.00 0.00 57 1015.4
20260904100015 60 279 0.0 0.0 0.00 0.00 0.00 57 1015.4
20260904095513 61 279 0.0 0.9 0.00 0.00 0.00 57 1015.5
20260904095012 61 279 0.0 0.9 0.00 0.00 0.00 57 1015.4
20260904094534 61 279 0.0 0.9 0.00 0.00 0.00 57 1015.5
20260904094013 61 279 0.0 2.6 0.00 0.00 0.00 56 1015.4
20260904093504 61 279 0.0 2.6 0.00 0.00 0.00 56 1015.4
20260904093005 62 279 0.9 2.6 0.00 0.00 0.00 56 1015.4
20260904092503 62 279 0.9 2.6 0.00 0.00 0.00 57 1015.4
20260904092005 62 287 0.9 2.6 0.00 0.00 0.00 58 1015.5
20260904091506 62 287 0.0 0.0 0.00 0.00 0.00 57 1015.5
20260904091005 62 287 0.0 0.9 0.00 0.00 0.00 57 1015.4